TIME,DELAY(SENSOR),PRES,OXYGEN,RAWTEMP,T(OPTODE),TCPHASE,FLUOR,BETA(BETA700),BETA(BETA412),BETA(BETA440),CDOM,C(CSC),ED(ED411.90),ED(ED443.80),ED(ED489.40),ED(ED554.70),LU(LU412.20),LU(LU443.80),LU(LU489.40),LU(LU555.00),COMP,TILTX,TILTY,CHECK
1339451598,5805,862.8300170898438000,188.4253997802734400,478.9309997558594000,8.1816987991333000,38.2710685729980500,53,102,100,79,81,15183,2146955638,2147513654,2147290998,2147516827,2147089389,2146930880,2147711817,2147113828,1427,-2,8,56462
1339455194,5806,991.4500122070312000,235.2368011474609400,539.0288085937500000,6.3133392333984375,36.5900688171386700,52,103,101,78,82,15169,2146956617,2147518107,2147295808,2147530715,2147091739,2146920128,2147724470,2147118290,1436,-1,8,50339
1339458794,5804,1042.4200439453125000,250.0904998779297000,552.7537841796875000,5.8829770088195800,36.0856094360351560,52,103,101,79,83,15156,2146956050,2147515565,2147299995,2147526070,2147092763,2146920969,2147733842,2147115629,3340,-1,8,64636
1339462394,5805,1042.9899902343750000,251.2664947509765600,552.7188720703125000,5.8840727806091310,36.0271110534668000,53,102,100,80,82,15163,2146955318,2147519122,2147299885,2147530898,2147093092,2146923373,2147732498,2147113170,416,-1,8,1697
1339465994,5805,1052.0300292968750000,250.8636016845703000,552.3012695312500000,5.8971881866455080,36.0394096374511700,53,104,101,79,82,15160,2146957019,2147521170,2147297472,2147532132,2147087725,2146914468,2147729682,2147116361,2873,-1,8,19210
1339469594,5808,1051.5000000000000000,248.4889068603515600,549.6475830078125000,5.9805030822753910,36.1078910827636700,52,105,101,79,81,15162,2146955995,2147522029,2147298651,2147525266,2147092397,2146921106,2147729033,2147115108,5,-1,8,39243
1339473194,5806,1046.5400390625000000,248.0021057128906200,549.1574707031250000,5.9958839416503910,36.1234397888183600,53,104,99,79,82,15161,2146954980,2147516781,2147299968,2147529590,2147091181,2146923602,2147733494,2147117110,2910,-1,8,23744
1339476794,5806,1058.0799560546875000,248.3251953125000000,549.0178222656250000,6.0002689361572270,36.1047897338867200,51,102,102,80,82,15152,2146954971,2147518747,2147296960,2147528640,2147092077,2146922249,2147729810,2147112448,102,-1,8,7728
1339480394,5807,1024.2800292968750000,241.6078948974609400,543.9694824218750000,6.1585869789123535,36.3499107360839840,52,105,100,79,82,15146,2146960603,2147517778,2147300022,2147528923,2147089325,2146913993,2147729197,2147117869,3404,-1,8,28675
1339483994,5804,1023.3800048828125000,242.0825042724609400,543.7506713867188000,6.1654429435729980,36.3222694396972660,52,106,101,79,82,15152,2146959899,2147517056,2147301348,2147528438,2147090578,2146923072,2147724379,2147120118,3534,-1,8,28134
1339487594,5803,1024.1999511718750000,242.1880950927734400,544.2241210937500000,6.1506061553955080,36.3251609802246100,53,105,101,80,82,15147,2146957558,2147520557,2147297691,2147531209,2147091337,2146925952,2147727277,2147116059,3496,-1,8,14201
1339491194,5807,1020.0499877929688000,245.1289978027343800,547.8311767578125000,6.0374999046325680,36.2426300048828100,52,103,101,79,81,15147,2146958281,2147522368,2147299337,2147531291,2147087369,2146921673,2147726418,2147115520,244,-1,8,40660
1339494794,5808,1019.1500244140625000,245.4163970947265600,548.1759033203125000,6.0266861915588380,36.2338600158691400,53,103,101,79,82,15141,2146954742,2147521746,2147298102,2147528667,2147089380,2146919296,2147729856,2147116589,417,-1,8,2487
1339498394,5807,1021.2899780273438000,246.8945007324218800,548.2653808593750000,6.0238780975341800,36.1617088317871100,53,103,101,79,82,15147,2146958208,2147520411,2147296850,2147532498,2147089106,2146919753,2147730313,2147114870,337,-1,8,12534
1339501994,5802,1024.0699462890625000,246.3415985107422000,548.2113037109375000,6.0255742073059080,36.1888084411621100,52,105,101,80,82,15141,2146959286,2147517357,2147299830,2147528265,2147092288,2146923830,2147730038,2147115666,401,-1,8,34593
1339505594,5804,1029.2299804687500000,245.1672973632812500,547.1342163085938000,6.0593619346618650,36.2280502319335940,53,103,101,79,81,15145,2146955236,2147516041,2147293595,2147531867,2147090816,2146921801,2147726372,2147114706,3234,-1,8,42785
1339509194,5806,1027.6999511718750000,244.4656982421875000,546.3947753906250000,6.0825519561767580,36.2498588562011700,53,103,101,79,82,15140,2146954304,2147517440,2147298505,2147530157,2147090971,2146922724,2147728877,2147114532,3368,-1,8,12429
1339512794,5803,1029.2199707031250000,244.3088073730468800,545.9255981445312000,6.0972647666931150,36.2485618591308600,52,104,101,81,81,15142,2146956827,2147520704,2147296256,2147528941,2147094774,2146922633,2147729700,2147116818,3025,-1,8,55692
1339516394,5807,1031.6999511718750000,243.6475982666015600,545.4968872070312000,6.1107082366943360,36.2748985290527340,53,103,101,79,82,15139,2146956160,2147518153,2147297965,2147527643,2147091437,2146920009,2147726546,2147115611,3345,-1,8,7609
1339519994,5804,1027.6099853515625000,244.0317993164062500,546.0609130859375000,6.0930228233337400,36.2655296325683600,52,105,100,79,82,15141,2146954395,2147514980,2147300900,2147530121,2147091501,2146920329,2147726921,2147117037,3560,-1,8,59212
1339523594,5805,1027.6500244140625000,243.9501037597656200,546.6644897460938000,6.0740947723388670,36.2802810668945300,52,103,103,79,82,15137,2146956288,2147521097,2147298322,2147529005,2147092105,2146917065,2147726390,2147116672,3524,-1,8,17254
1339527194,5808,1029.1099853515625000,245.1013946533203000,547.1989746093750000,6.0573291778564450,36.2318916320800800,52,103,101,80,82,15137,2146957760,2147519744,2147298962,2147529417,2147088502,2146923593,2147727542,2147116068,3491,-2,8,6690
1339530794,5807,1030.6899414062500000,246.6208953857422000,548.3095703125000000,6.0224909782409670,36.1763610839843750,53,102,101,81,82,15092,2146955757,2147515200,2147302555,2147528704,2147089371,2146918509,2147723035,2147115392,3296,-1,8,38456
1339534394,5804,1031.3199462890625000,245.9315032958984400,548.1854248046875000,6.0263881683349610,36.2086601257324200,52,108,101,80,82,15091,2146953755,2147518637,2147299638,2147528100,2147089819,2146923593,2147728027,2147113938,3470,-1,8,40564
1339537994,5804,1026.9300537109375000,246.6911926269531200,549.4652709960938000,5.9862251281738280,36.1940803527832000,52,105,99,80,82,15088,2146959826,2147518226,2147298514,2147528630,2147088457,2146917540,2147732068,2147114331,2940,-1,8,63109
1339541594,5808,1032.3499755859375000,247.5816040039062500,549.1232910156250000,5.9969577789306640,36.1431388854980500,52,104,102,80,81,15085,2146957366,2147521782,2147299254,2147531510,2147091510,2146914093,2147730898,2147113755,94,-1,8,3902
1339545194,5808,1026.0500488281250000,248.0278015136718800,550.0015258789062000,5.9693951606750490,36.1374092102050800,52,103,102,79,82,15085,2146956553,2147517467,2147298816,2147531300,2147089206,2146915446,2147728064,2147115629,3192,-1,8,1847
1339548794,5805,1027.6199951171875000,247.9194946289062500,549.8375244140625000,5.9745450019836430,36.1398506164550800,51,107,101,81,82,15086,2146956032,2147521581,2147296585,2147530651,2147091638,2146914669,2147726070,2147117622,2556,-1,8,15390
1339552394,5805,1036.5500488281250000,246.9409942626953000,548.2371215820312000,6.0247669219970700,36.1592407226562500,53,105,100,79,80,15085,2146956333,2147516635,2147299602,2147531721,2147089627,2146918464,2147725760,2147117750,697,-1,8,61261
1339555994,5808,1033.9100341796875000,247.0686035156250000,548.7421875000000000,6.0089168548583980,36.1620597839355500,52,106,101,81,81,15079,2146956589,2147517760,2147299648,2147531885,2147091044,2146917376,2147730404,2147112283,67,-1,8,61345
1339559594,5808,1035.5200195312500000,244.4416961669922000,547.2025756835938000,6.0572171211242680,36.2652282714843750,52,106,100,79,82,15069,2146956955,2147518692,2147301165,2147531876,2147093339,2146919131,2147731318,2147117504,707,-1,8,60243
1339563194,5804,1017.2000122070312000,237.0178985595703000,538.5532836914062000,6.3282241821289060,36.4886894226074200,54,108,101,81,82,15071,2146958939,2147518875,2147294144,2147527451,2147087588,2146924187,2147724498,2147115574,3580,-1,8,33930
1339566794,5805,1015.4500122070312000,236.6907958984375000,539.2869262695312000,6.3052620887756350,36.5180816650390600,52,106,100,80,82,15073,2146956489,2147516534,2147298688,2147527990,2147090578,2146927835,2147724461,2147111670,122,-1,8,8478
1339570394,5806,1013.2299804687500000,237.8948974609375000,540.6101074218750000,6.2638301849365230,36.4796104431152340,53,105,101,79,82,15073,2146958756,2147518939,2147296283,2147528164,2147089234,2146925028,2147727076,2147117522,3167,-1,8,37706
1339573994,5804,1011.7199707031250000,239.1490936279297000,540.9525756835938000,6.2531070709228520,36.4216117858886700,52,103,101,81,82,15069,2146957174,2147518445,2147295817,2147530258,2147089545,2146914678,2147722304,2147116708,2903,-1,8,8121
1339577594,5805,1006.7000122070312000,238.8491973876953000,541.8836059570312000,6.2239460945129395,36.4535713195800800,52,104,101,80,82,15070,2146955830,2147519945,2147297718,2147527753,2147091565,2146920329,2147725851,2147119488,3155,-1,8,33705
1339581194,5810,1002.4199829101562000,240.2442016601562500,543.6038208007812000,6.1700482368469240,36.4132804870605500,52,103,100,80,83,15061,2146958025,2147519515,2147299126,2147529179,2147090651,2146916077,2147730898,2147118116,96,-1,8,20064
1339584794,5807,1002.6599731445312000,242.3753967285156200,545.5352172851562000,6.1095089912414550,36.3398399353027340,52,106,100,82,81,15066,2146955209,2147517513,2147297718,2147530240,2147090770,2146914377,2147728320,2147117723,3443,-1,8,17453
1339588394,5805,1007.7399902343750000,243.4604034423828000,545.0170898437500000,6.1257500648498535,36.2752494812011700,53,105,101,81,82,14786,2146955556,2147517568,2147297024,2147530925,2147089398,2146919862,2147727908,2147117979,3551,-1,8,5214
1339591994,5807,1007.1799926757812000,242.1974029541015600,545.4163818359375000,6.1132321357727050,36.3461799621582000,52,105,100,80,82,15059,2146956690,2147522304,2147296530,2147530614,2147090203,2146917668,2147727140,2147118793,207,-1,8,24884
1339595156,5804,1008.9799804687500000,241.6562042236328000,543.4608764648438000,6.1745262145996090,36.3387107849121100,52,103,100,80,82,15124,2146955419,2147517248,2147294592,2147528246,2147090185,2146922194,2147729353,2147119926,3418,-1,8,39660
